Tracking 30101 objects as of 14-Dec-2024
HD Live streaming from Space Station
objects crossing your sky now

ERS 15

Track ERS 15 now!
10-day predictions
ERS 15 is classified as:


NORAD ID: 2412
Int'l Code: 1966-077C
Perigee: 3,691.6 km
Apogee: 3,707.2 km
Inclination: 90.3 °
Period: 167.6 minutes
Semi major axis: 10070 km
RCS: 0.3509 m2 (medium)
Launch date: August 19, 1966
Source: United States (US)
Launch site: AIR FORCE WESTERN TEST RANGE (AFWTR)
Your satellite tracking list
Your tracking list is empty




NASA's NSSDC Master Catalog

Two Line Element Set (TLE):
1 02412U 66077C   24346.70006458  .00000002  00000-0  00000-0 0  9996
2 02412  90.3360 270.7787 0007758 263.5018  96.4950  8.59077580343015
Source of the keplerian elements: AFSPC